Regional Weather Roundup
Issued by NWS

Home | Current Version | Previous Version | Graphics & Text | Print | Product List | Glossary On
Versions: 1 2 3 4 5 6 7 8 9 10 11 12 13 14 15 16 17 18 19 20 21 22 23 24 25 26 27 28 29 30 31 32 33 34 35 36 37 38 39 40 41 42 43 44 45 46 47 48 49 50
000
ASUS43 KLMK 272310
RWRKY
KENTUCKY REGIONAL WEATHER ROUNDUP
NATIONAL WEATHER SERVICE LOUISVILLE KY
700 PM EDT SAT AUG 27 2016

NOTE "FAIR" INDICATES FEW OR NO CLOUDS BELOW 12,000 FEET
WITH NO SIGNIFICANT WEATHER AND/OR OBSTRUCTIONS TO VISIBILITY.

KYZ001>023-026-027-061>063-070>075-280000-
WESTERN AND SOUTH CENTRAL KENTUCKY

CITY           SKY/WX    TMP DP  RH WIND       PRES   REMARKS
PADUCAH        SUNNY     88  73  61 CALM      30.03R HX  95
HENDERSON      CLOUDY    88  73  62 CALM      30.02S HX  96
OWENSBORO      CLOUDY    89  77  67 S5        30.05S HX 101
HOPKINSVILLE   CLOUDY    77  73  88 S10G25    30.09R THUNDER
BOWLING GREEN  CLOUDY    85  74  69 SW13      30.07R HX  92
GLASGOW        PTSUNNY   85  76  74 CALM      30.08R HX  95
$$

KYZ024-025-028>034-038-045-046-053-280000-
NORTH CENTRAL KENTUCKY

CITY           SKY/WX    TMP DP  RH WIND       PRES   REMARKS
LOUISVILLE/SDF PTSUNNY   88  71  57 SE3       30.06S HX  94
LOUISVILLE/LOU CLOUDY    88  72  58 CALM      30.07S HX  94
FORT KNOX      MOSUNNY   80  68  65 VRB1      30.06F
$$

KYZ035>037-039>044-047>052-055>060-089>105-280000-
NORTHEAST KENTUCKY

CITY           SKY/WX    TMP DP  RH WIND       PRES   REMARKS
LEXINGTON      PTSUNNY   82  69  64 NE8       30.12R
COVINGTON      MOSUNNY   80  72  76 E5        30.10S
FRANKFORT      MOSUNNY   86  71  60 N3        30.10R HX  91
$$

KYZ054-064>069-076>088-106>120-280000-
SOUTHEAST KENTUCKY

CITY           SKY/WX    TMP DP  RH WIND       PRES   REMARKS
JACKSON        SUNNY     87  74  64 CALM      30.12R HX  95
LONDON         SUNNY     88  68  51 E5        30.10R HX  91
SOMERSET       PTSUNNY   84  70  61 CALM      30.10R
MIDDLESBORO    CLOUDY    84  73  68 W3        30.10R HX  90
MONTICELLO     CLOUDY   N/A N/A N/A NW8G17    30.10R
$$





USA.gov is the U.S. government's official web portal to all federal, state and local government web resources and services.